Retour au catalogue

BREEZE-M DEB

TANK

ActifHEO
NORAD 40260·DEBRIS·🇷🇺 Russia

Lancé Sep 27, 2014 depuis Baikonur Cosmodrome

Loading…

Prochains Passages (prochaines 24 heures)

TLE

FraisSource: Space-Track

Époque: Sep 11, 2026, 06:48 UTC

1 40260U 14058C   26254.28373615 -.00000106  00000-0  23007-2 0  9996
2 40260  45.0579 276.8463 7009037  83.0190 345.4669  2.27184836 98495

Suivez BREEZE-M DEB en temps réel avec AllMySat

Download on the App Store